Wetbulb
65.98 66.59 67.05 67.52 66.50 65.61 64.59 63.05 61.47 60.65 60.03 59.38 59.42 59.46 59.37 58.96 58.82 57.04 56.76 56.30 56.11 55.24 54.11 52.76 51.58 49.84 40.83
59.62 63.18 64.26 64.61 64.38 63.61 62.70 61.61 60.50 59.65 59.47 58.73 59.12 59.07 58.89 58.54 57.09 55.65 54.93 54.71 54.05 52.98 51.89 50.37 48.55 46.86 40.12
55.01 57.30 60.52 62.23 61.71 61.02 59.85 58.32 53.24 47.65 48.90 49.34 52.86 58.37 57.51 56.88 55.66 54.13 52.65 51.52 50.43 50.08 49.49 47.79 44.79 38.80 38.86
53.64 53.29 53.77 54.97 54.10 52.19 50.60 48.18 44.61 43.26 44.14 46.89 51.59 56.03 55.89 55.30 53.52 52.46 50.31 47.71 42.25 37.44 37.85 41.38 36.84 37.19 37.29
50.02 49.93 49.84 49.49 48.53 47.48 45.96 42.88 40.83 40.21 42.94 43.04 42.28 41.12 40.48 43.66 39.13 39.75 37.26 36.41 36.34 36.16 35.87 35.26 35.52 35.54 35.13
47.61 48.78 47.72 47.32 44.97 44.11 42.91 40.73 37.46 37.92 38.89 38.69 36.63 35.09 34.80 34.71 34.44 34.55 34.67 34.98 35.14 35.56 35.18 34.53 34.48 34.49 34.57
46.19 46.48 45.78 45.35 45.00 42.70 40.34 39.66 37.60 37.96 36.66 36.12 34.93 33.89 33.28 33.49 33.50 33.07 33.35 33.80 33.88 34.24 34.28 33.99 33.93 34.25 34.56
47.15 46.20 46.90 45.22 42.29 40.09 38.34 38.87 37.32 37.57 36.11 35.62 34.39 33.36 32.59 32.76 32.53 32.63 32.46 32.32 32.40 33.13 33.15 33.47 33.56 33.87 34.25
47.11 45.43 45.52 43.93 40.90 39.64 38.80 37.36 37.17 37.03 35.78 35.10 34.07 32.40 32.15 32.13 32.29 31.86 31.38 31.14 31.07 32.02 31.61 32.48 33.09 33.53 33.83
46.79 44.57 43.92 41.54 41.14 40.17 37.86 37.50 37.17 36.63 35.64 34.26 33.48 32.09 31.82 31.50 31.17 30.52 29.90 29.83 29.85 30.10 30.26 30.90 31.16 32.56 33.62
45.64 43.21 41.74 39.90 40.18 39.18 36.98 36.97 36.43 36.19 35.29 34.76 33.22 31.68 31.42 30.60 30.08 30.16 28.86 29.06 28.72 29.36 30.60 30.35 30.47 31.34 32.30
43.38 39.80 36.72 36.03 37.21 35.68 36.56 36.14 35.66 36.15 34.73 33.82 32.31 31.39 30.92 29.95 29.18 28.65 28.66 28.54 28.49 28.04 30.78 30.11 29.86 31.04 30.90
39.67 37.19 36.13 37.57 36.25 36.00 36.30 36.20 35.69 35.18 34.29 33.68 32.27 30.78 30.30 29.84 29.06 28.46 28.35 27.93 27.36 27.30 28.07 28.59 28.73 30.44 30.41
40.26 39.98 37.45 39.70 36.04 37.60 35.53 33.89 34.82 33.45 33.36 33.33 32.38 30.95 30.29 28.71 28.14 27.94 28.33 27.11 27.04 26.34 27.10 26.26 26.58 27.93 29.07
39.08 37.61 31.38 31.06 30.13 30.44 30.66 32.12 31.97 33.32 32.97 32.95 32.18 31.33 30.13 29.53 28.77 27.80 27.30 27.92 26.42 26.20 26.10 27.77 25.07 26.19 24.83
38.30 36.93 36.05 35.57 34.79 35.40 36.79 36.13 33.81 32.86 32.45 32.10 31.81 30.88 30.18 29.05 27.33 27.58 27.68 26.78 27.28 25.89 26.88 27.81 25.94 26.02 24.94
MSLP
1016.53 1016.81 1017.12 1017.36 1017.73 1018.17 1018.53 1018.95 1019.32 1019.61 1019.89 1020.04 1020.13 1020.25 1020.41 1020.60 1020.75 1021.02 1021.14 1021.26 1021.44 1021.40 1021.45 1021.49 1021.57 1021.46 1021.83
1016.50 1016.69 1017.04 1017.40 1017.75 1018.14 1018.56 1018.96 1019.43 1019.70 1019.92 1020.18 1020.34 1020.26 1020.45 1020.69 1020.98 1021.13 1021.35 1021.48 1021.61 1021.68 1021.64 1021.73 1021.89 1021.93 1021.98
1016.51 1016.69 1016.96 1017.34 1017.83 1018.22 1018.65 1019.07 1019.54 1020.00 1020.31 1020.48 1020.53 1020.46 1020.64 1020.88 1021.03 1021.20 1021.55 1021.71 1021.87 1021.97 1021.96 1022.11 1022.23 1022.36 1022.28
1016.37 1016.65 1016.93 1017.24 1017.72 1018.22 1018.76 1019.27 1019.80 1020.29 1020.49 1020.62 1020.68 1020.68 1020.85 1021.00 1021.19 1021.39 1021.77 1022.05 1022.48 1022.61 1022.58 1022.61 1022.74 1022.61 1022.68
1016.34 1016.63 1016.92 1017.33 1017.80 1018.29 1018.73 1019.26 1019.87 1020.33 1020.51 1020.81 1021.13 1021.47 1021.67 1021.81 1022.04 1022.16 1022.44 1022.65 1022.79 1022.80 1022.83 1022.89 1022.89 1022.86 1022.96
1016.22 1016.51 1016.88 1017.29 1017.68 1018.24 1018.69 1019.11 1019.76 1020.42 1020.80 1021.13 1021.60 1021.99 1022.14 1022.27 1022.39 1022.60 1022.77 1022.88 1022.96 1022.90 1022.91 1023.11 1023.13 1023.24 1023.06
1016.07 1016.41 1016.77 1017.03 1017.29 1017.72 1018.37 1018.85 1019.39 1019.99 1020.52 1020.97 1021.41 1021.75 1021.96 1022.20 1022.44 1022.71 1022.75 1022.75 1022.95 1022.98 1023.13 1023.08 1023.23 1023.30 1023.18
1015.17 1015.60 1015.97 1016.52 1016.97 1017.56 1018.03 1018.36 1018.94 1019.45 1019.97 1020.66 1021.15 1021.60 1021.97 1022.10 1022.36 1022.61 1022.75 1022.85 1023.13 1023.09 1023.26 1023.26 1023.39 1023.37 1023.23
1014.05 1014.74 1015.32 1015.93 1016.72 1017.23 1017.56 1018.02 1018.54 1019.07 1019.59 1020.13 1020.72 1021.36 1021.76 1022.13 1022.39 1022.87 1023.00 1023.24 1023.41 1023.40 1023.45 1023.43 1023.53 1023.46 1023.36
1013.01 1013.75 1014.54 1015.22 1015.82 1016.40 1017.06 1017.51 1018.09 1018.62 1019.03 1019.74 1020.49 1021.25 1021.71 1022.32 1022.69 1022.97 1023.15 1023.44 1023.41 1023.37 1023.42 1023.39 1023.49 1023.40 1023.34
1012.27 1013.10 1013.80 1014.55 1015.21 1015.74 1016.45 1016.98 1017.53 1018.08 1018.60 1019.27 1020.07 1020.79 1021.43 1022.18 1022.61 1022.57 1023.10 1023.26 1023.45 1023.38 1023.40 1023.64 1023.72 1023.70 1023.57
1011.60 1012.69 1013.51 1014.30 1014.91 1015.48 1016.01 1016.53 1017.09 1017.62 1018.20 1018.91 1019.75 1020.52 1021.21 1021.93 1022.41 1022.59 1022.92 1023.39 1023.49 1023.51 1023.49 1023.69 1023.90 1024.07 1024.02
1010.60 1011.72 1013.03 1013.09 1014.06 1014.82 1015.09 1015.57 1016.29 1017.04 1017.76 1018.43 1019.28 1020.17 1020.74 1021.42 1021.75 1022.18 1022.67 1023.26 1023.53 1023.41 1023.53 1023.98 1024.17 1024.19 1024.35
1009.12 1009.95 1010.94 1011.85 1012.93 1013.46 1014.37 1015.13 1015.69 1016.47 1017.19 1017.91 1018.61 1019.41 1020.07 1020.86 1021.34 1021.68 1021.96 1022.99 1023.26 1023.26 1023.66 1024.18 1024.53 1024.64 1024.40
1008.69 1009.90 1011.05 1011.98 1012.99 1013.73 1014.31 1014.81 1015.10 1015.65 1016.34 1017.01 1017.82 1018.65 1019.49 1020.05 1020.65 1021.02 1021.41 1021.87 1022.71 1023.34 1023.20 1023.36 1024.50 1024.74 1024.98
1007.39 1008.53 1009.37 1009.90 1011.03 1011.16 1011.80 1013.14 1014.18 1014.82 1015.45 1016.23 1017.09 1017.91 1018.71 1019.52 1020.23 1020.64 1021.13 1021.42 1021.67 1022.80 1023.47 1023.35 1023.32 1023.68 1024.66
Wind_Speed
11 12 14 15 15 15 15 14 12 12 11 10 10 11 11 11 11 10 10 10 10 10 11 11 12 12 6
5 10 9 12 12 13 12 11 11 9 10 10 7 11 12 13 12 11 11 10 10 10 11 11 11 11 6
6 6 9 12 11 11 10 12 9 4 5 6 5 11 13 13 12 12 11 10 10 10 10 10 9 4 5
5 6 6 6 5 6 6 7 5 5 5 5 4 8 10 11 11 11 11 10 7 3 3 6 3 4 4
5 4 3 3 4 4 7 7 6 4 3 3 3 3 4 6 4 5 5 4 5 3 4 4 4 4 3
5 5 5 5 4 5 5 7 5 4 4 5 4 4 3 3 4 4 3 4 4 4 4 4 4 3 2
8 5 5 6 6 6 6 7 6 6 5 5 5 4 4 3 4 4 4 4 4 4 3 4 4 4 5
13 11 9 7 6 5 5 7 8 5 6 5 5 4 4 3 3 3 3 4 3 3 4 4 4 4 4
17 12 9 7 6 7 7 7 8 7 7 7 5 5 4 3 5 4 3 3 3 1 2 2 3 3 3
17 13 9 9 9 8 7 7 9 8 8 7 5 5 5 4 4 4 3 2 2 2 1 3 3 3 4
15 11 11 10 9 7 6 7 9 9 8 7 6 5 6 5 4 4 2 2 1 1 2 4 4 4 5
11 8 5 5 6 5 7 8 9 8 9 8 6 7 6 5 4 3 3 3 2 0 2 4 4 3 4
12 12 8 13 9 8 9 11 11 9 10 9 6 7 6 7 6 6 4 4 1 1 3 3 4 3 5
13 11 4 10 7 8 7 8 10 10 10 10 10 9 9 6 7 7 6 4 2 2 4 2 2 2 2
13 8 4 6 4 4 4 6 9 13 13 12 12 10 10 8 8 7 6 6 5 2 3 5 2 3 1
17 15 15 10 10 9 11 9 10 13 13 13 12 11 11 7 7 7 5 4 5 5 2 2 4 4 4
Wind_Direction
190 181 187 180 177 177 172 172 165 163 161 151 146 138 130 121 109 99 90 84 78 71 67 62 59 59 53
177 173 181 171 170 172 169 160 152 154 149 145 151 141 136 129 121 113 106 100 85 74 64 58 52 49 47
171 176 170 164 165 163 151 133 111 110 108 115 177 147 142 136 127 118 112 102 89 76 69 58 51 36 39
171 175 161 156 150 141 136 126 129 144 148 154 136 136 136 131 125 117 108 96 84 71 46 55 47 50 40
183 169 159 153 144 147 150 147 147 146 143 112 85 63 61 81 63 89 86 72 77 66 52 48 41 38 24
171 180 170 166 162 165 167 155 152 154 157 149 141 151 146 144 123 114 115 119 103 87 70 58 49 37 34
188 178 177 186 180 172 167 169 160 166 164 150 157 160 160 151 150 142 138 121 106 97 80 70 50 30 19
195 190 193 185 174 170 173 178 173 165 158 163 160 168 165 160 140 135 135 114 89 68 51 40 43 34 32
197 193 189 184 173 181 185 175 175 172 170 165 159 162 167 147 132 131 106 100 108 127 99 65 50 26 47
198 191 189 182 183 187 182 176 179 177 168 160 155 166 150 151 154 147 139 121 111 79 24 30 45 47 47
196 188 188 180 188 187 173 179 181 179 168 162 161 157 153 154 166 154 112 130 116 36 33 41 39 47 53
179 168 155 163 184 159 182 186 178 180 169 158 155 154 154 153 165 160 137 64 109 47 52 68 58 69 58
174 173 179 196 184 190 188 186 183 177 172 168 161 158 162 172 174 163 126 142 55 15 105 52 43 77 50
184 187 174 183 196 195 179 180 178 170 171 172 170 176 174 161 167 175 158 143 130 35 129 101 58 356 37
174 155 81 84 65 121 171 182 185 180 178 177 177 174 176 173 181 182 169 165 144 55 65 139 111 214 356
169 172 179 187 182 202 193 192 190 186 180 177 177 176 178 174 171 177 172 175 134 154 113 60 69 135 166